• In Deutschland
  • Länderverzeichnis
  • Für 7 Tage
  • Wassertemperatur
  • Satellitenkarten
  • Wetterkarte
  • Widgets
  • user-avatar
    Anmelden

    Stündliche Wetter Landshut

    Heute, 24 April, Dienstag

    Zeit Temperatur Niederschläge Wind Luftdruck Luftfeuchtigkeit
    00:00 +13°C° 0,2 mm 3 m/S 723 mmHg 92%
    01:00 +12°C° 0,2 mm 3 m/S 723 mmHg 93%
    02:00 +12°C° 0,2 mm 3 m/S 723 mmHg 94%
    03:00 +12°C° 0,2 mm 3 m/S 723 mmHg 95%
    04:00 +11°C° 0,2 mm 3 m/S 723 mmHg 95%
    05:00 +12°C° 0,1 mm 3 m/S 723 mmHg 94%
    06:00 +12°C° 0,1 mm 3 m/S 723 mmHg 93%
    07:00 +12°C° 0,1 mm 3 m/S 723 mmHg 91%
    08:00 +14°C° 0 mm 3 m/S 723 mmHg 84%
    09:00 +16°C° 0 mm 3 m/S 723 mmHg 77%
    10:00 +17°C° 0 mm 3 m/S 723 mmHg 70%
    11:00 +18°C° 0 mm 3 m/S 723 mmHg 66%
    12:00 +19°C° 0 mm 3 m/S 723 mmHg 61%
    13:00 +20°C° 0 mm 3 m/S 722 mmHg 57%
    14:00 +20°C° 0 mm 3 m/S 722 mmHg 56%
    15:00 +21°C° 0 mm 3 m/S 722 mmHg 56%
    16:00 +21°C° 0 mm 3 m/S 721 mmHg 55%
    17:00 +19°C° 0 mm 2 m/S 721 mmHg 61%
    18:00 +18°C° 0 mm 2 m/S 721 mmHg 68%
    19:00 +16°C° 0 mm 1 m/S 721 mmHg 75%
    20:00 +15°C° 0 mm 1 m/S 721 mmHg 78%
    21:00 +14°C° 0 mm 1 m/S 721 mmHg 81%
    22:00 +13°C° 0 mm 1 m/S 721 mmHg 84%
    23:00 +13°C° 0 mm 1 m/S 721 mmHg 86%

    Morgen, 25 April, Mittwoch

    Zeit Temperatur Niederschläge Wind Luftdruck Luftfeuchtigkeit
    00:00 +12°C° 0 mm 1 m/S 721 mmHg 87%
    01:00 +12°C° 0 mm 1 m/S 721 mmHg 88%
    02:00 +11°C° 0 mm 1 m/S 721 mmHg 89%
    03:00 +11°C° 0 mm 1 m/S 721 mmHg 90%
    04:00 +11°C° 0 mm 1 m/S 721 mmHg 91%
    05:00 +12°C° 0 mm 2 m/S 721 mmHg 88%
    06:00 +12°C° 0 mm 2 m/S 721 mmHg 85%
    07:00 +13°C° 0 mm 2 m/S 721 mmHg 82%
    08:00 +14°C° 0 mm 3 m/S 721 mmHg 74%
    09:00 +17°C° 0 mm 4 m/S 721 mmHg 66%
    10:00 +20°C° 0 mm 4 m/S 721 mmHg 58%
    11:00 +21°C° 0 mm 4 m/S 720 mmHg 55%
    12:00 +22°C° 0 mm 5 m/S 720 mmHg 52%
    13:00 +23°C° 0 mm 5 m/S 720 mmHg 49%
    14:00 +22°C° 0 mm 5 m/S 719 mmHg 51%
    15:00 +22°C° 0 mm 5 m/S 719 mmHg 52%
    16:00 +22°C° 0 mm 5 m/S 719 mmHg 54%
    17:00 +21°C° 0 mm 4 m/S 719 mmHg 61%
    18:00 +19°C° 0 mm 3 m/S 719 mmHg 67%
    19:00 +17°C° 0 mm 2 m/S 719 mmHg 74%
    20:00 +16°C° 0 mm 2 m/S 719 mmHg 77%
    21:00 +15°C° 0 mm 2 m/S 720 mmHg 80%
    22:00 +13°C° 0 mm 2 m/S 721 mmHg 83%
    23:00 +13°C° 0 mm 2 m/S 721 mmHg 84%

    übermorgen, 26 April, Donnerstag

    Zeit Temperatur Niederschläge Wind Luftdruck Luftfeuchtigkeit
    00:00 +12°C° 0 mm 2 m/S 721 mmHg 86%
    01:00 +12°C° 0 mm 2 m/S 721 mmHg 87%
    02:00 +10°C° 0 mm 2 m/S 721 mmHg 89%
    03:00 +10°C° 0 mm 2 m/S 721 mmHg 90%
    04:00 +9°C° 0 mm 2 m/S 721 mmHg 92%
    05:00 +10°C° 0,1 mm 2 m/S 721 mmHg 90%
    06:00 +10°C° 0,1 mm 2 m/S 721 mmHg 89%
    07:00 +10°C° 0,1 mm 2 m/S 721 mmHg 87%
    08:00 +10°C° 0,3 mm 2 m/S 722 mmHg 84%
    09:00 +10°C° 0,3 mm 3 m/S 722 mmHg 81%
    10:00 +10°C° 0,3 mm 3 m/S 722 mmHg 78%
    11:00 +11°C° 0,1 mm 3 m/S 722 mmHg 73%
    12:00 +11°C° 0,1 mm 4 m/S 722 mmHg 67%
    13:00 +12°C° 0,1 mm 4 m/S 722 mmHg 62%
    14:00 +13°C° 0 mm 4 m/S 722 mmHg 59%
    15:00 +13°C° 0 mm 4 m/S 722 mmHg 56%
    16:00 +13°C° 0 mm 4 m/S 722 mmHg 54%
    17:00 +12°C° 0 mm 3 m/S 722 mmHg 58%
    18:00 +12°C° 0 mm 2 m/S 722 mmHg 63%
    19:00 +10°C° 0 mm 2 m/S 722 mmHg 67%
    20:00 +10°C° 0 mm 1 m/S 723 mmHg 70%
    21:00 +9°C° 0 mm 1 m/S 723 mmHg 72%
    22:00 +8°C° 0 mm 1 m/S 723 mmHg 75%
    23:00 +7°C° 0 mm 1 m/S 723 mmHg 76%

    27 April, Freitag

    Zeit Temperatur Niederschläge Wind Luftdruck Luftfeuchtigkeit
    00:00 +7°C° 0 mm 1 m/S 723 mmHg 77%
    01:00 +5°C° 0 mm 0 m/S 723 mmHg 78%
    02:00 +6°C° 0 mm 1 m/S 722 mmHg 79%
    03:00 +6°C° 0 mm 1 m/S 722 mmHg 81%
    04:00 +5°C° 0 mm 1 m/S 722 mmHg 82%
    05:00 +7°C° 0 mm 1 m/S 721 mmHg 80%
    06:00 +7°C° 0 mm 2 m/S 721 mmHg 78%
    07:00 +8°C° 0 mm 2 m/S 721 mmHg 76%
    08:00 +10°C° 0 mm 3 m/S 721 mmHg 70%
    09:00 +12°C° 0 mm 3 m/S 720 mmHg 63%
    10:00 +14°C° 0 mm 4 m/S 720 mmHg 57%
    11:00 +15°C° 0 mm 4 m/S 719 mmHg 55%
    12:00 +17°C° 0 mm 4 m/S 719 mmHg 52%
    13:00 +19°C° 0 mm 4 m/S 718 mmHg 50%
    14:00 +19°C° 0 mm 3 m/S 718 mmHg 52%
    15:00 +19°C° 0 mm 3 m/S 717 mmHg 55%
    16:00 +19°C° 0 mm 3 m/S 717 mmHg 57%
    17:00 +18°C° 0,3 mm 2 m/S 717 mmHg 64%
    18:00 +16°C° 0,3 mm 2 m/S 717 mmHg 72%
    19:00 +15°C° 0,3 mm 1 m/S 717 mmHg 79%
    20:00 +14°C° 0,5 mm 1 m/S 717 mmHg 81%
    21:00 +13°C° 0,5 mm 1 m/S 718 mmHg 84%
    22:00 +13°C° 0,5 mm 1 m/S 718 mmHg 86%
    23:00 +13°C° 0,2 mm 1 m/S 718 mmHg 87%

    28 April, Samstag

    Zeit Temperatur Niederschläge Wind Luftdruck Luftfeuchtigkeit
    00:00 +12°C° 0,2 mm 1 m/S 718 mmHg 87%
    01:00 +12°C° 0,2 mm 1 m/S 718 mmHg 88%
    02:00 +11°C° 0,1 mm 0 m/S 718 mmHg 89%
    03:00 +10°C° 0,1 mm 0 m/S 719 mmHg 91%
    04:00 +10°C° 0,1 mm 0 m/S 719 mmHg 92%
    05:00 +10°C° 0 mm 0 m/S 719 mmHg 91%
    06:00 +12°C° 0 mm 1 m/S 719 mmHg 89%
    07:00 +13°C° 0 mm 1 m/S 719 mmHg 88%
    08:00 +15°C° 0 mm 1 m/S 719 mmHg 82%
    09:00 +16°C° 0 mm 2 m/S 719 mmHg 76%
    10:00 +18°C° 0 mm 2 m/S 719 mmHg 70%
    11:00 +19°C° 0 mm 3 m/S 719 mmHg 66%
    12:00 +20°C° 0 mm 3 m/S 718 mmHg 61%
    13:00 +21°C° 0 mm 3 m/S 718 mmHg 57%
    14:00 +21°C° 0,2 mm 4 m/S 718 mmHg 59%
    15:00 +21°C° 0,2 mm 4 m/S 718 mmHg 62%
    16:00 +20°C° 0,2 mm 4 m/S 717 mmHg 64%
    17:00 +19°C° 0,2 mm 4 m/S 717 mmHg 70%
    18:00 +18°C° 0,2 mm 4 m/S 717 mmHg 76%
    19:00 +16°C° 0,2 mm 3 m/S 717 mmHg 81%
    20:00 +16°C° 0 mm 3 m/S 717 mmHg 84%
    21:00 +14°C° 0 mm 3 m/S 716 mmHg 87%
    22:00 +13°C° 0 mm 3 m/S 716 mmHg 89%
    23:00 +12°C° 0 mm 3 m/S 716 mmHg 91%

    29 April, Sonntag

    Zeit Temperatur Niederschläge Wind Luftdruck Luftfeuchtigkeit
    00:00 +12°C° 0 mm 3 m/S 716 mmHg 92%
    01:00 +11°C° 0 mm 3 m/S 715 mmHg 94%
    02:00 +11°C° 0 mm 3 m/S 715 mmHg 95%
    03:00 +11°C° 0 mm 3 m/S 715 mmHg 95%
    04:00 +10°C° 0 mm 3 m/S 714 mmHg 96%
    05:00 +11°C° 0 mm 3 m/S 714 mmHg 93%
    06:00 +12°C° 0 mm 3 m/S 714 mmHg 90%
    07:00 +13°C° 0 mm 3 m/S 714 mmHg 87%
    08:00 +16°C° 0 mm 3 m/S 713 mmHg 78%
    09:00 +18°C° 0 mm 3 m/S 713 mmHg 70%
    10:00 +20°C° 0 mm 3 m/S 713 mmHg 62%
    11:00 +21°C° 0 mm 3 m/S 713 mmHg 57%
    12:00 +22°C° 0 mm 3 m/S 713 mmHg 52%
    13:00 +25°C° 0 mm 2 m/S 712 mmHg 48%
    14:00 +25°C° 0 mm 2 m/S 712 mmHg 47%
    15:00 +25°C° 0 mm 2 m/S 712 mmHg 47%
    16:00 +26°C° 0 mm 1 m/S 712 mmHg 47%
    17:00 +24°C° 0 mm 1 m/S 712 mmHg 54%
    18:00 +22°C° 0 mm 1 m/S 712 mmHg 61%
    19:00 +18°C° 0 mm 0 m/S 712 mmHg 68%
    20:00 +19°C° 0,1 mm 1 m/S 712 mmHg 71%
    21:00 +16°C° 0,1 mm 1 m/S 712 mmHg 73%
    22:00 +15°C° 0,1 mm 1 m/S 713 mmHg 75%
    23:00 +14°C° 0,1 mm 1 m/S 713 mmHg 78%
    Mehr zeigen